GFSWCAN_925_rhum_093.txt.gz
RH
96 98 99 99 99 98 100 98 97 96 96 96 97 96 99 97 92 98 96 97 93 96 95 78 62 67 67 69 85 73 80 93 100 98 94 86 84 62 56 47 46 80 93 88 79 96 87 59 68 70 84 79 59 60
99 100 100 100 99 97 96 95 95 94 95 96 99 98 96 98 99 99 96 100 100 97 99 88 69 53 48 50 60 66 78 78 91 85 84 76 82 80 62 60 50 62 59 79 97 83 78 60 53 53 60 64 58 68
100 97 97 99 98 99 100 98 95 95 92 86 80 82 94 96 97 99 98 99 100 97 100 99 91 73 57 49 45 69 66 58 88 76 98 92 91 69 81 68 56 50 54 69 67 55 57 54 49 52 50 58 54 60
98 98 98 98 98 99 99 96 94 96 92 92 93 86 82 88 93 98 98 99 97 99 99 99 90 84 64 58 58 56 54 58 60 74 99 100 92 92 74 54 56 42 56 62 62 49 56 50 48 46 54 52 56 55
99 100 100 100 100 99 99 99 99 100 98 97 97 95 89 86 85 96 100 99 98 83 98 96 79 81 72 69 72 68 69 67 76 92 100 96 92 95 86 84 74 51 48 60 62 44 55 51 50 52 67 69 67 65
100 100 96 98 98 100 100 99 90 99 93 100 99 94 95 82 84 99 100 100 100 93 100 97 74 79 75 71 71 71 74 79 84 98 100 91 75 80 94 88 59 48 46 45 46 38 55 56 53 63 71 70 67 69
94 100 96 89 79 85 91 91 92 85 90 94 96 99 100 93 95 96 96 96 98 97 100 97 84 74 75 70 76 80 72 80 89 99 100 90 87 85 95 84 52 53 53 53 52 55 58 45 45 68 69 69 68 66
94 86 73 78 92 96 93 87 93 94 90 84 88 99 98 98 99 97 91 100 96 96 97 97 90 88 80 93 90 86 88 84 91 97 98 99 88 88 95 66 55 50 49 51 51 50 50 48 70 68 68 71 80 84
95 93 94 86 86 95 87 90 88 90 90 89 94 100 100 98 100 97 95 99 83 88 98 96 90 96 97 97 88 92 86 98 95 98 98 96 94 95 79 69 58 57 59 54 64 70 70 73 71 70 70 77 83 88
93 92 96 96 98 99 96 90 90 92 98 96 100 100 100 100 95 97 100 100 99 98 98 96 90 98 98 96 95 100 98 97 98 92 94 99 80 61 65 64 62 63 61 72 77 76 82 82 78 76 77 78 82 84
99 100 94 96 94 95 100 99 100 99 98 95 100 99 99 91 89 99 100 98 99 99 97 87 91 98 98 98 96 100 100 97 100 93 94 92 86 78 86 85 89 84 80 80 79 79 76 79 77 80 82 80 79 80
95 91 92 88 92 96 92 92 90 91 95 90 94 93 90 94 98 96 93 94 84 87 91 95 97 95 100 99 100 99 95 98 94 91 97 85 79 90 88 92 92 87 84 82 78 79 77 77 75 77 81 83 85 89
91 90 88 76 85 84 85 84 82 74 72 69 81 92 88 93 98 88 93 95 96 96 99 99 100 94 100 100 98 98 96 96 92 97 86 82 90 93 91 88 90 87 86 84 84 80 81 82 82 83 88 91 92 93
78 76 74 74 77 69 67 63 54 49 54 86 84 94 90 94 97 97 94 96 97 98 99 99 98 98 99 98 97 96 90 95 96 95 91 96 93 93 92 92 88 92 93 93 89 86 88 89 92 94 94 93 91 92
76 79 66 60 71 55 49 44 43 43 80 90 84 99 97 96 96 93 94 94 93 96 100 99 96 90 97 98 92 90 98 93 90 89 94 91 90 90 91 91 92 92 94 95 94 93 93 92 91 94 95 94 94 95
65 78 76 53 52 56 50 38 43 52 84 84 88 93 93 93 94 95 95 95 95 95 98 100 95 95 93 94 88 92 92 91 93 90 90 91 92 93 93 93 93 94 95 95 94 93 94 94 93 94 95 95 95 95
59 77 74 68 50 48 45 49 59 85 89 88 97 95 94 95 96 95 95 92 93 96 97 93 90 97 87 92 92 89 93 92 90 90 90 93 91 92 92 92 94 93 94 94 94 94 94 95 95 93 92 95 96 96
86 81 71 65 68 55 56 60 84 81 90 92 92 95 93 94 94 94 94 94 96 95 87 93 86 90 94 92 92 93 91 93 92 92 92 92 92 93 92 92 94 92 94 94 94 94 94 93 92 93 94 95 95 95
85 75 67 58 56 62 85 89 74 90 93 93 91 90 92 94 91 94 94 95 96 94 90 92 92 91 93 92 93 94 94 92 91 92 93 95 94 95 95 95 95 94 94 94 94 93 94 95 94 94 95 92 92 96
70 65 59 57 52 84 91 94 66 77 91 90 90 91 92 94 94 95 91 90 76 85 90 92 93 93 93 94 95 93 92 90 86 90 92 93 94 94 95 94 94 94 94 94 95 94 94 94 96 96 96 96 93 95
59 62 64 58 75 79 93 88 89 84 89 89 86 89 95 88 92 93 93 78 84 94 92 93 95 95 95 95 96 93 93 87 92 87 88 91 94 93 94 95 95 94 92 92 91 94 94 93 96 97 99 100 100 100
62 60 60 67 93 86 87 94 85 95 92 91 93 82 94 94 95 94 80 90 94 94 94 95 94 94 93 94 94 95 96 96 96 93 94 92 90 91 92 95 91 93 94 94 93 94 95 97 100 100 100 100 100 100
51 51 64 73 85 88 99 99 94 96 95 96 92 90 93 93 92 62 94 92 94 94 94 94 96 96 93 96 94 95 96 94 91 92 94 94 95 96 94 95 96 93 93 96 98 98 100 100 100 100 100 100 98 98
46 82 90 92 88 99 89 95 87 91 91 94 91 94 92 93 76 84 92 92 94 91 91 94 93 91 90 88 91 92 95 96 94 94 96 93 91 94 96 96 97 97 97 99 100 100 100 100 100 98 96 98 99 100
74 90 86 89 83 86 90 91 88 85 96 91 89 94 93 86 90 90 92 90 92 93 93 93 91 91 91 91 91 94 97 97 92 89 96 96 95 95 95 98 100 100 96 92 99 100 100 100 97 98 99 97 97 99
98 91 89 94 93 90 90 95 97 96 92 93 96 88 84 87 88 93 87 92 92 91 94 94 93 91 91 92 91 91 97 97 97 92 98 97 97 92 88 87 86 96 82 76 80 93 96 91 91 88 91 87 85 86
96 97 81 64 72 71 90 85 76 88 96 100 95 90 86 98 98 91 87 88 88 94 99 99 95 92 92 94 98 98 97 96 97 99 100 87 81 80 83 92 93 93 77 65 60 59 68 75 77 75 77 79 76 74
87 80 95 98 91 82 98 97 98 100 96 85 79 99 100 99 95 91 91 97 99 99 100 100 100 99 99 98 97 97 97 97 96 95 82 83 81 75 76 83 86 81 75 70 65 62 60 62 67 73 76 82 87 88
100 92 83 99 93 96 98 100 99 91 90 94 99 100 98 92 96 95 98 98 96 95 98 98 98 96 96 96 96 94 79 79 92 88 90 92 91 100 90 78 76 80 82 83 83 79 76 74 75 80 86 89 91 90
96 92 95 99 99 100 100 98 98 97 90 94 88 80 89 95 98 97 95 95 95 98 98 98 97 96 99 98 99 97 82 70 66 74 81 86 98 100 94 90 86 81 77 75 81 89 87 88 92 95 94 95 96 97
94 93 97 97 100 97 96 98 88 93 96 98 100 99 99 99 99 98 96 99 98 96 94 97 97 96 93 91 91 94 100 97 90 82 82 87 86 86 89 92 94 93 87 82 81 79 81 84 86 89 93 95 98 98
100 100 98 100 100 97 99 99 100 99 100 100 98 100 96 96 100 98 98 97 93 96 97 90 94 100 98 96 94 96 97 98 97 98 97 95 96 97 98 97 95 92 91 89 91 92 92 92 94 94 92 92 92 94
100 100 100 100 100 100 100 95 99 100 100 100 100 100 100 98 100 98 100 98 97 94 91 93 95 94 90 89 91 94 93 94 95 95 94 93 92 91 93 96 93 86 83 93 98 100 99 99 99 99 99 99 100 100

GFSWCAN_925_rhum_096.txt.gz
RH
82 82 85 88 96 97 98 98 98 98 94 91 88 85 85 85 77 81 88 89 88 89 69 49 49 67 92 83 89 90 80 69 95 100 86 69 67 46 45 37 59 72 85 89 82 87 76 41 69 94 84 61 51 60
87 88 92 98 99 99 98 100 99 98 93 92 91 90 89 88 90 88 89 88 94 86 76 64 57 58 55 42 61 68 63 72 81 77 74 61 65 57 47 53 28 45 37 44 60 62 38 40 67 66 62 57 43 67
94 98 100 100 99 99 100 96 94 96 92 93 96 96 93 95 96 99 97 99 98 97 100 88 78 81 68 60 49 76 61 49 61 64 92 81 76 50 65 51 41 31 31 47 54 36 50 59 69 62 48 41 54 51
97 99 100 100 98 98 98 97 98 95 93 87 88 88 95 97 99 98 98 99 98 99 98 86 79 67 63 65 56 52 50 45 50 65 99 98 82 64 56 51 51 36 33 37 39 34 33 33 38 36 33 45 55 59
97 99 99 100 100 100 100 100 97 93 96 94 89 84 86 84 94 100 100 100 99 78 97 71 66 71 66 63 65 57 56 63 74 91 100 93 63 62 57 60 57 40 39 42 45 33 35 34 30 33 36 44 54 66
98 100 96 100 98 94 94 90 99 97 94 94 95 95 86 84 91 100 100 100 100 90 100 82 55 62 71 70 66 59 60 67 78 100 100 98 67 69 74 58 37 34 33 32 38 32 34 36 36 36 45 51 61 63
100 100 92 82 86 90 88 94 99 99 98 99 96 95 87 89 97 98 95 90 100 98 100 96 69 62 61 69 66 66 63 82 93 100 100 94 61 70 73 73 40 34 32 32 30 31 39 37 37 39 50 56 60 62
100 92 83 82 86 89 90 88 85 82 84 93 98 98 93 96 100 97 99 100 98 97 95 98 76 75 63 70 74 65 74 76 96 100 98 99 83 98 98 51 43 37 35 34 34 33 36 36 36 46 53 62 67 72
99 99 98 87 85 90 90 87 85 85 79 88 86 99 100 99 99 98 99 100 93 85 98 98 82 81 78 62 56 70 63 83 66 91 85 72 74 76 47 40 37 37 40 40 35 41 41 42 52 55 61 65 74 81
98 100 88 98 100 99 97 86 89 89 83 84 99 100 100 99 94 98 99 99 98 94 92 88 64 93 76 91 97 94 83 69 86 70 61 99 70 44 38 37 39 50 52 50 52 51 40 57 64 63 63 65 71 77
96 95 87 96 94 95 99 85 90 88 97 97 100 100 99 88 80 97 100 100 100 100 98 68 64 81 84 90 92 83 98 81 80 64 76 62 57 46 38 44 58 68 65 62 62 62 59 63 65 65 70 72 73 76
95 100 95 99 95 95 100 99 99 94 95 94 96 95 90 95 100 99 95 92 78 69 83 86 74 61 89 86 93 99 95 99 93 80 89 62 78 78 74 76 77 78 77 74 65 65 64 64 62 64 68 73 78 85
89 94 98 95 97 93 80 78 83 83 78 63 76 99 88 95 97 83 86 84 88 78 90 99 98 91 97 91 100 100 99 92 75 97 74 81 87 83 84 82 79 79 84 80 77 69 68 69 72 73 82 85 89 92
76 75 79 60 91 91 93 80 72 69 57 78 92 88 86 91 87 83 78 80 93 94 98 85 98 91 93 100 98 99 96 91 93 87 81 89 83 80 79 83 78 83 89 90 87 84 84 85 88 90 93 92 91 92
80 66 62 61 59 43 49 52 52 44 63 81 72 91 86 84 83 88 87 86 88 91 100 100 99 99 96 99 94 91 96 90 78 86 87 82 79 79 80 82 85 87 90 90 91 92 92 91 89 92 96 95 94 95
76 74 68 62 57 52 43 41 53 62 67 72 78 84 85 84 90 88 89 91 87 90 95 100 99 95 96 96 94 93 89 82 89 83 80 76 79 83 85 85 88 88 88 90 92 92 94 93 91 94 96 95 95 95
62 78 65 49 43 38 38 51 60 69 74 75 86 82 82 85 88 88 88 87 86 94 99 96 95 93 83 89 86 79 86 86 83 80 79 86 86 85 85 86 88 89 88 88 88 88 91 94 94 91 92 94 95 96
82 75 65 61 59 47 56 67 64 66 82 80 82 87 84 85 87 88 87 87 91 87 85 89 72 82 85 84 83 84 79 80 81 82 81 83 84 83 82 84 86 88 88 91 91 91 90 93 89 91 93 94 95 95
80 69 63 64 57 67 68 70 57 76 82 77 79 79 80 83 85 87 88 89 90 87 78 86 87 85 86 84 89 87 85 83 84 88 89 89 91 91 90 88 90 88 89 90 90 88 92 92 92 94 94 94 93 94
66 62 61 60 54 69 78 74 56 63 76 77 72 79 78 87 87 88 89 88 86 87 88 88 88 89 89 88 90 90 87 83 78 82 85 87 90 92 91 89 90 90 90 93 93 94 93 92 94 95 96 95 94 95
58 59 63 57 78 72 78 74 74 67 73 74 76 66 85 78 86 87 86 67 76 88 88 88 89 89 91 92 92 90 87 81 85 84 84 86 88 88 90 92 92 91 89 89 88 92 93 92 94 97 96 97 98 96
61 59 67 76 84 81 77 70 74 75 72 78 80 77 88 88 89 90 75 84 89 89 89 90 90 90 89 89 86 88 90 89 89 87 91 90 86 85 87 90 88 89 90 91 90 90 92 94 96 95 95 97 92 91
51 57 70 69 81 82 99 94 83 86 81 86 76 79 86 87 87 70 88 87 87 87 89 89 92 94 90 92 90 90 93 88 84 86 88 89 90 92 91 92 94 90 88 92 94 94 94 95 96 93 92 91 89 88
44 76 81 81 76 92 74 83 72 76 78 78 73 80 80 84 68 72 85 85 87 85 82 85 83 84 84 81 80 85 90 92 89 90 92 90 87 91 93 93 95 95 94 94 91 90 91 94 91 88 86 84 82 82
73 86 76 81 71 76 81 82 82 76 86 81 78 83 84 74 79 78 80 80 83 87 87 84 81 81 82 85 83 87 96 94 90 84 93 94 92 92 93 94 94 93 95 92 91 92 94 93 90 88 85 82 81 85
92 82 81 84 81 80 81 87 88 87 83 84 86 72 68 73 76 85 76 83 84 84 88 88 88 83 83 86 85 86 92 97 94 89 95 98 96 92 85 80 82 94 97 97 93 92 92 92 90 88 89 90 90 87
87 87 70 55 62 64 79 75 68 76 84 88 81 77 72 84 84 78 70 76 78 87 90 91 88 86 86 89 93 96 99 100 98 97 98 100 100 99 90 82 86 98 99 99 95 91 89 90 89 88 91 92 90 88
74 69 88 87 79 70 85 82 84 87 84 73 68 86 84 81 81 77 77 87 90 91 92 94 95 94 94 95 97 97 97 99 99 98 93 94 100 100 100 100 85 75 89 97 95 95 92 91 90 88 87 92 100 98
87 76 69 91 81 81 86 86 85 78 76 72 79 81 80 77 84 82 86 92 95 91 87 87 92 95 96 99 100 100 100 99 91 90 90 88 81 97 100 100 100 100 99 82 69 80 86 94 95 96 98 99 100 100
85 74 80 84 87 89 88 84 86 86 71 71 66 68 72 82 93 97 94 92 90 91 95 97 97 94 92 90 93 97 100 100 100 88 80 84 95 100 100 100 100 100 100 100 100 100 94 77 81 85 92 99 100 100
76 73 78 77 83 82 80 88 78 74 73 78 72 77 82 84 90 99 100 99 98 97 94 94 96 99 96 95 91 87 92 100 100 100 100 100 100 100 100 100 100 100 100 100 100 100 100 100 100 99 98 100 100 99
82 83 80 85 85 83 86 80 84 84 85 79 87 84 86 80 87 86 100 98 94 92 100 95 91 100 100 100 100 100 100 100 100 100 100 100 100 97 91 89 90 100 98 100 100 100 100 100 99 98 99 100 100 100
87 82 82 84 88 88 88 83 84 86 85 86 90 90 90 85 91 87 100 100 100 98 99 100 100 100 89 92 98 100 100 98 95 92 90 88 86 90 91 88 83 85 95 100 100 100 100 100 100 100 100 100 100 100

GFSWCAN_925_rhum_099.txt.gz
RH
81 83 85 83 81 82 86 91 97 95 89 87 85 84 83 84 81 90 78 74 85 80 60 43 40 71 78 84 80 77 89 77 98 100 78 60 78 50 47 39 77 81 89 81 65 89 79 27 33 57 72 64 57 44
85 82 84 86 87 86 96 98 99 100 97 89 90 86 81 82 83 84 80 73 86 78 59 54 44 42 42 47 74 63 70 60 99 92 66 81 78 59 49 63 29 74 47 62 58 50 32 28 50 56 67 74 62 50
86 86 88 89 93 96 98 100 97 96 97 94 92 92 92 83 81 87 84 79 91 91 87 70 59 50 61 51 48 67 54 50 58 79 95 95 95 55 70 48 42 38 28 37 39 33 32 32 43 43 62 61 56 43
90 90 89 93 98 100 99 98 98 96 91 95 95 93 89 87 86 86 97 88 86 99 94 62 65 60 47 53 61 56 52 51 63 70 99 97 80 46 56 57 49 38 43 46 40 31 30 27 32 48 54 36 32 43
90 92 95 99 99 99 99 100 99 98 96 92 95 92 93 94 88 96 100 99 90 80 88 79 51 58 53 54 48 54 61 67 82 96 100 95 57 58 50 49 51 34 38 44 45 35 38 33 28 29 32 34 39 50
95 91 96 99 99 100 100 98 100 100 99 94 91 91 88 88 98 100 100 100 100 91 98 87 52 54 54 57 57 60 61 68 86 100 99 63 49 64 78 54 33 29 29 28 33 26 27 27 27 29 30 37 48 54
96 99 95 99 96 82 88 91 90 96 100 99 92 89 86 86 99 99 95 89 100 100 100 95 59 50 50 54 61 67 59 68 85 99 99 71 56 66 84 75 41 33 28 27 26 27 32 28 31 28 29 40 54 59
99 100 100 96 88 83 79 81 87 97 97 99 95 94 88 89 99 98 97 97 100 97 98 100 75 71 55 73 78 63 72 68 96 99 96 90 59 61 81 42 34 30 29 29 27 26 28 28 28 27 30 46 55 65
94 93 92 91 79 82 86 86 84 83 88 96 99 92 99 100 98 97 96 100 97 93 100 100 80 79 56 56 54 67 65 93 61 91 72 58 65 71 45 36 32 30 32 30 31 35 33 35 32 38 46 48 61 70
94 99 91 92 93 97 93 91 89 82 82 100 100 100 100 100 99 100 100 99 98 95 95 88 55 77 63 68 66 75 66 70 73 62 48 70 67 42 34 31 30 30 30 38 48 45 41 45 41 51 52 53 60 67
95 87 94 98 99 98 96 91 91 88 99 98 100 100 99 97 88 97 100 100 100 100 87 57 52 69 63 84 88 68 97 78 81 49 58 57 47 51 37 36 35 58 53 54 52 52 48 50 52 52 57 64 68 73
92 98 98 97 96 94 97 98 97 92 97 94 96 96 96 96 100 99 100 96 76 62 64 68 55 56 81 68 94 94 87 98 85 61 77 60 93 77 71 70 68 68 65 63 62 62 57 56 54 54 61 68 75 83
94 99 99 99 100 100 100 99 92 86 93 72 75 99 90 100 100 91 90 78 76 67 80 81 91 99 87 77 98 100 99 82 70 85 64 84 77 73 70 70 69 66 78 73 73 72 68 68 68 65 75 84 88 91
88 91 89 95 99 96 96 89 80 83 81 89 99 96 96 94 81 87 59 64 91 84 80 81 84 70 80 96 95 88 77 84 85 77 73 87 82 74 74 80 70 71 82 91 85 84 88 87 90 92 93 94 93 91
70 87 85 87 85 79 78 77 75 57 60 85 72 91 84 86 85 90 91 86 90 94 90 90 82 86 96 100 89 89 98 87 88 88 89 84 81 78 78 80 81 81 85 85 86 90 91 91 90 92 96 96 94 96
80 79 74 72 64 69 66 60 57 59 63 72 78 83 85 84 92 91 94 94 86 89 99 98 100 99 97 93 98 90 86 86 91 87 82 72 79 82 79 82 84 86 87 88 88 87 89 90 92 94 95 95 96 95
66 81 61 54 46 50 57 55 57 66 72 74 85 82 84 83 90 90 88 87 81 93 100 100 100 98 83 93 89 76 88 89 83 80 78 82 86 85 87 84 87 83 83 87 89 88 89 91 93 91 92 96 96 96
84 83 62 61 68 63 65 59 60 62 80 81 80 88 81 81 85 85 86 86 93 93 86 89 73 88 86 86 84 85 84 78 77 76 80 82 84 89 90 82 83 82 81 87 88 89 88 86 82 87 90 93 94 95
80 75 69 60 59 58 63 62 52 74 82 78 81 80 81 86 84 83 87 88 87 79 74 78 84 82 86 83 87 85 83 79 80 85 88 88 86 87 87 86 81 82 82 86 87 82 85 88 88 91 90 91 92 94
61 60 62 56 58 60 70 67 49 60 80 78 72 78 75 82 80 84 84 83 80 81 85 85 86 87 86 85 88 90 90 89 86 86 83 84 85 86 82 81 82 84 82 86 88 88 86 86 90 92 93 94 91 92
69 71 68 66 60 61 68 65 68 62 65 73 67 64 83 72 81 83 82 73 81 88 86 88 89 90 90 91 91 90 87 82 87 84 83 85 83 81 80 88 91 87 84 86 84 89 90 89 92 94 95 96 96 95
71 67 76 69 78 71 66 59 68 68 65 74 68 63 77 81 83 87 78 83 88 88 88 89 89 89 87 88 88 88 89 88 85 83 87 89 86 84 85 88 90 90 90 89 88 90 92 95 96 96 96 97 96 95
64 62 68 65 87 76 93 89 84 82 83 81 72 74 80 82 85 71 87 85 87 87 88 87 88 92 88 90 86 86 88 86 80 82 85 87 88 89 87 89 90 89 87 91 94 93 93 96 96 89 84 84 84 83
53 75 79 82 73 87 72 75 63 68 75 75 70 79 78 81 64 72 83 81 84 74 78 87 79 76 72 73 76 81 86 87 84 86 89 86 84 89 91 92 93 94 93 93 94 94 90 85 82 81 79 77 76 77
71 85 73 78 69 72 77 77 75 67 78 68 71 77 78 65 70 71 75 76 81 83 82 80 76 74 77 78 78 82 92 89 86 80 91 91 90 88 89 91 94 96 97 91 84 83 83 82 80 78 77 76 75 77
86 78 75 76 76 74 74 81 80 79 73 76 76 66 64 67 70 78 70 78 80 77 84 84 84 80 78 83 81 82 88 93 89 87 92 95 94 90 89 84 80 90 89 88 84 83 83 83 81 80 81 82 82 81
82 83 66 49 56 61 75 70 62 71 77 80 73 72 67 76 78 74 64 70 73 83 86 86 83 81 82 84 89 93 95 96 95 94 97 97 97 96 91 83 85 92 91 90 87 84 82 82 82 81 82 83 82 81
67 67 86 78 74 64 78 74 75 79 76 64 61 79 77 74 80 76 76 82 86 85 86 87 89 89 89 91 93 93 93 97 99 99 98 98 97 95 98 100 100 100 98 96 93 90 87 85 84 82 82 83 88 86
79 66 64 82 71 74 79 78 78 71 67 65 71 73 76 73 78 79 81 87 88 87 83 83 88 91 92 93 95 96 97 96 88 86 86 89 88 93 96 96 95 97 99 98 96 94 90 90 88 88 90 90 92 92
80 62 71 72 77 83 85 74 81 77 63 62 61 65 71 78 88 89 88 85 83 86 89 91 91 88 88 86 88 92 98 99 99 93 87 88 90 94 95 95 96 97 95 96 98 100 100 100 100 100 99 96 94 94
61 64 66 69 80 82 82 79 71 71 71 74 67 73 76 78 83 90 89 90 88 88 85 86 89 91 89 89 89 86 89 97 99 99 96 96 98 99 100 100 100 98 97 95 94 93 92 89 89 88 86 86 91 87
72 70 70 76 82 74 74 79 73 75 76 75 78 72 77 73 78 79 96 93 84 85 89 86 84 90 95 96 98 100 100 100 100 100 100 100 100 100 100 100 100 100 97 96 94 92 88 86 85 85 85 86 89 89
73 71 69 73 80 76 77 73 67 76 71 73 79 76 80 77 82 80 95 100 93 88 89 93 97 100 100 100 99 99 100 100 84 89 83 82 82 99 100 100 100 100 98 96 95 95 92 89 88 90 91 93 95 96

GFSWCAN_925_rhum_105.txt.gz
RH
75 86 86 81 80 80 86 90 92 93 90 94 94 90 89 85 78 83 84 74 92 98 72 62 60 70 74 79 93 98 90 97 98 94 97 86 88 69 67 53 80 96 83 88 85 91 84 46 44 52 77 59 59 60
82 81 83 81 82 83 90 93 92 85 75 75 81 89 93 94 88 83 95 78 77 96 90 73 64 60 59 52 79 78 98 99 100 100 100 99 96 92 91 94 98 98 74 85 77 73 72 72 78 74 58 57 55 55
83 85 89 84 80 82 84 84 85 84 80 80 91 94 97 96 96 94 88 76 75 99 90 79 68 55 46 44 50 84 77 57 78 93 100 100 99 100 96 94 94 99 87 100 87 74 74 71 66 58 44 44 43 47
86 86 87 87 86 86 86 85 85 84 82 82 84 88 94 100 97 96 98 81 76 97 100 77 46 61 47 52 50 54 58 59 69 76 94 99 99 73 88 77 77 69 90 99 97 83 74 74 63 48 50 45 43 56
86 87 85 85 86 86 88 89 87 85 85 88 96 98 96 98 97 97 99 94 78 86 96 95 75 54 45 50 57 52 55 69 82 95 100 99 89 78 90 81 82 58 74 83 100 84 88 68 47 54 54 52 61 73
87 89 88 88 89 90 92 92 93 94 96 98 99 98 97 93 92 100 100 90 85 84 100 99 65 61 52 58 57 61 68 72 84 99 100 91 67 80 100 89 43 42 41 41 52 49 52 42 42 48 60 71 70 74
87 88 92 96 96 98 95 94 97 98 98 99 98 97 96 90 95 92 91 91 82 91 100 98 92 60 45 49 72 75 65 81 87 97 99 90 76 75 99 88 49 46 44 41 37 37 50 50 55 50 66 71 74 77
92 99 98 100 99 96 94 95 99 100 99 100 98 98 92 89 97 94 79 96 99 93 100 99 93 83 56 83 90 82 90 84 98 98 97 95 81 87 95 66 54 44 37 37 36 45 57 49 52 59 62 68 78 85
99 99 99 99 99 95 95 95 91 86 95 98 100 96 99 99 100 96 82 96 100 93 98 96 96 86 66 76 79 80 85 100 97 97 97 91 86 88 66 60 60 60 58 57 49 53 52 55 58 59 64 70 82 88
98 100 95 98 95 94 91 84 82 94 100 100 100 100 99 99 99 96 98 100 100 100 99 94 86 89 77 94 98 100 92 96 97 93 78 92 85 76 70 74 74 74 66 64 72 74 68 72 69 68 71 70 80 87
100 99 96 93 92 90 90 84 85 100 100 98 100 100 97 96 95 100 99 99 99 99 95 88 85 91 75 91 95 95 94 94 88 82 86 90 96 92 67 68 69 76 75 69 70 70 72 80 85 84 83 84 86 86
100 100 98 90 98 94 84 87 99 97 97 95 97 98 94 96 100 99 98 99 98 85 90 94 86 80 89 85 94 94 93 90 89 81 95 96 95 76 74 74 71 80 80 76 75 78 83 83 83 84 86 90 93 95
100 99 97 100 99 96 90 100 96 88 99 80 92 100 98 100 98 98 97 95 96 91 86 93 97 98 92 94 99 97 92 87 78 97 96 94 91 78 76 73 73 72 80 76 77 82 86 88 94 90 91 94 95 96
98 99 86 98 100 98 99 98 84 100 92 99 99 99 98 97 94 93 95 93 99 95 92 94 99 97 98 93 87 82 88 83 89 95 96 95 91 83 76 76 78 83 83 92 88 84 88 90 93 97 98 97 96 95
100 99 100 100 100 100 100 99 99 88 82 96 86 98 97 97 97 99 100 97 98 98 92 93 97 92 96 93 92 92 84 82 94 98 98 96 90 88 82 84 88 89 94 94 94 97 96 95 94 96 99 98 97 96
98 97 100 100 100 98 92 94 85 68 79 82 90 94 96 93 98 97 97 98 96 99 98 93 87 89 95 92 88 82 87 96 98 97 98 93 92 92 95 92 94 95 94 96 95 95 95 95 94 97 98 98 98 96
91 99 88 92 86 80 70 68 74 82 84 84 98 95 98 95 97 98 97 98 98 98 96 91 88 76 94 96 97 97 97 98 98 99 96 94 96 97 96 94 95 96 93 93 94 94 98 98 96 92 93 97 97 97
82 88 93 65 60 60 58 56 78 75 92 94 94 96 92 96 96 96 97 97 98 99 98 98 95 96 97 96 97 97 97 97 97 96 95 95 94 92 91 96 92 93 94 96 95 94 92 92 90 94 95 97 96 97
54 57 61 79 77 66 79 71 64 88 95 94 93 95 95 97 93 93 93 95 95 88 95 94 91 98 98 98 97 97 96 98 98 96 97 89 88 94 87 91 94 92 93 94 96 96 95 89 93 95 96 96 95 96
82 82 97 81 70 72 79 84 56 84 96 96 93 94 97 97 97 92 89 91 88 94 93 94 97 98 98 98 97 96 97 97 97 96 97 98 81 88 87 87 93 89 94 96 96 95 96 97 98 98 97 96 94 96
75 79 73 64 60 71 89 89 86 90 93 92 88 89 97 83 94 96 93 77 87 96 96 97 98 97 96 96 96 97 94 95 97 98 98 97 89 82 93 96 97 96 96 96 94 96 95 96 98 98 97 98 98 98
69 73 72 65 80 77 85 76 85 84 89 93 96 87 95 97 97 96 75 89 96 97 97 97 96 97 96 95 96 96 97 97 91 91 91 93 96 96 96 97 95 96 96 96 94 95 97 98 99 98 97 98 97 97
66 64 68 71 82 84 99 99 95 94 93 93 86 86 94 96 97 71 96 95 96 95 95 96 96 96 96 96 94 93 97 87 93 96 96 95 97 98 97 97 96 95 94 96 96 96 96 97 97 97 97 97 97 97
56 82 88 91 85 94 84 89 83 87 92 91 91 95 94 96 87 92 95 95 95 93 93 95 91 95 93 87 91 93 96 94 91 94 96 90 91 96 97 97 96 96 96 96 96 96 96 97 97 97 97 96 97 97
75 85 87 88 82 86 91 94 94 82 95 91 92 96 96 93 94 94 94 95 94 94 94 94 88 90 93 92 90 93 94 96 94 91 98 94 94 93 95 97 97 97 94 95 96 96 96 96 96 95 94 94 96 98
93 81 81 89 89 86 90 93 92 90 88 90 92 88 91 89 88 97 92 96 96 95 96 95 95 93 92 94 93 93 97 96 87 91 97 98 96 95 94 94 93 96 96 94 94 96 96 94 91 91 91 90 91 94
93 94 77 57 70 71 89 84 74 87 94 96 92 89 88 94 98 96 89 93 96 95 92 93 96 96 96 96 96 96 94 91 96 98 97 96 94 94 93 96 96 97 92 85 86 86 91 90 89 88 88 88 88 88
80 78 95 90 84 75 87 89 91 94 92 83 84 97 97 97 98 97 98 95 97 95 96 94 83 88 95 97 96 96 96 95 92 90 92 96 96 94 93 94 96 95 95 93 85 80 81 81 83 87 91 90 87 87
91 78 81 88 84 90 92 93 96 87 83 92 95 96 98 94 95 94 96 91 80 84 94 95 97 98 94 91 94 96 98 98 95 94 94 95 93 97 97 95 90 88 92 95 96 91 89 90 90 88 87 91 92 85
87 83 85 90 93 98 96 93 94 92 83 84 84 82 86 95 97 97 93 96 91 97 95 98 98 90 100 95 98 96 96 95 98 98 96 96 98 98 96 97 97 86 81 88 90 96 92 86 87 92 98 97 93 96
85 87 83 90 96 93 94 84 81 80 80 84 85 86 96 99 89 82 92 90 90 96 92 94 99 99 97 96 100 96 99 94 96 96 97 98 96 96 96 96 97 98 99 99 96 90 95 93 85 90 97 97 92 89
89 85 90 96 98 97 96 96 95 96 97 96 96 94 98 98 100 96 90 97 88 94 90 87 94 100 100 95 89 86 87 81 74 83 92 95 97 100 100 100 97 90 87 83 85 89 92 95 96 88 82 80 92 99
80 79 83 92 98 95 90 94 86 91 93 93 94 94 96 97 100 99 90 88 95 96 99 100 100 100 95 99 100 96 96 88 67 64 70 79 91 92 96 95 95 99 100 92 86 87 91 92 90 93 96 92 88 94

GFSWCAN_925_rhum_111.txt.gz
RH
95 96 84 82 83 76 78 84 84 87 93 82 79 77 80 78 92 94 88 82 92 97 81 72 66 76 82 83 91 80 82 90 95 97 95 94 96 85 95 68 96 97 97 96 94 92 85 60 66 75 79 76 73 72
84 91 88 80 81 76 80 82 85 91 91 87 74 75 77 99 100 100 94 90 92 98 91 83 83 79 77 75 79 84 83 93 96 97 96 95 96 94 93 94 98 97 98 93 76 75 68 88 86 83 89 75 58 55
88 82 86 94 79 74 89 91 84 81 86 88 85 79 86 88 86 91 92 94 100 100 90 88 74 48 59 70 66 85 89 80 94 86 94 92 98 91 99 93 93 98 100 100 92 90 90 88 83 84 80 71 56 68
99 89 68 74 72 73 84 80 80 81 74 75 74 75 71 91 90 83 94 86 99 97 100 83 60 66 52 57 64 69 63 66 78 89 95 98 93 80 95 80 88 99 99 99 100 99 96 81 72 68 60 70 74 84
92 86 70 76 81 83 80 80 80 74 74 80 91 93 93 80 73 87 85 85 90 86 96 95 76 48 42 50 65 65 71 79 90 93 99 97 90 96 92 93 98 92 70 97 98 81 97 93 74 74 84 88 86 84
80 74 74 76 77 79 78 77 74 80 81 78 85 91 92 86 88 100 100 93 94 94 100 97 72 79 50 58 73 81 77 84 89 94 95 95 90 86 98 98 65 65 65 59 62 71 73 77 81 79 84 82 82 85
78 77 69 69 74 80 77 72 72 78 77 81 84 90 90 87 98 99 92 76 85 96 100 94 95 73 65 67 81 85 75 87 88 98 99 96 89 83 96 96 91 82 76 73 70 68 72 81 86 75 80 84 82 83
78 75 85 80 82 82 81 81 78 79 85 84 85 99 99 99 100 100 84 94 97 92 94 99 93 88 65 83 91 91 96 95 99 100 100 99 92 100 98 98 86 82 75 72 74 71 76 70 72 77 74 75 83 90
84 79 84 83 82 82 83 76 80 83 92 99 100 100 100 100 100 97 82 98 84 83 96 92 97 92 73 83 86 96 97 99 98 99 98 98 97 98 95 87 86 86 87 87 78 78 77 82 82 83 76 80 88 90
76 80 82 82 82 81 83 90 88 95 99 100 100 100 99 99 93 84 100 100 100 100 100 98 89 97 85 95 100 100 100 99 100 95 93 100 99 97 90 86 84 84 81 79 87 92 89 91 93 89 87 86 88 87
92 89 79 75 83 87 96 98 98 99 100 100 100 100 99 88 93 100 97 98 97 97 92 86 86 94 81 90 94 99 98 98 98 85 97 97 97 94 84 81 79 76 76 75 75 76 79 87 92 92 90 86 83 83
90 92 96 99 98 98 99 99 100 100 98 95 97 98 100 98 100 98 97 97 96 91 94 91 84 88 90 89 95 98 95 93 90 94 99 96 93 88 83 78 76 83 80 77 75 77 80 83 89 90 88 88 92 95
98 98 99 100 99 99 100 99 100 92 98 90 96 100 97 98 99 99 97 97 94 96 97 99 99 94 97 95 98 95 94 94 87 100 92 91 91 86 86 83 78 80 87 80 79 84 84 84 91 94 91 96 98 98
100 100 100 98 99 98 100 97 94 99 84 99 99 98 95 98 94 92 91 90 91 95 96 98 98 95 99 94 97 98 92 94 98 97 95 94 95 90 89 88 85 88 84 94 88 86 91 94 96 98 99 98 96 96
100 94 93 97 99 100 98 93 100 96 99 99 91 99 99 91 98 98 98 91 98 98 96 96 96 96 98 97 88 92 85 88 97 96 98 89 95 96 95 90 97 92 95 96 98 99 99 98 97 98 99 98 96 96
93 99 99 98 100 99 97 99 88 96 93 85 90 96 98 95 98 97 98 99 97 98 97 91 95 99 98 94 88 82 92 96 95 99 99 99 98 100 99 98 99 96 95 97 100 100 99 100 99 100 96 96 97 96
100 97 99 100 100 100 99 82 85 98 97 90 99 96 97 96 98 98 98 96 97 99 96 92 85 83 94 95 96 97 98 97 96 99 99 99 97 99 100 99 100 96 95 97 96 95 96 92 88 89 96 99 97 97
98 100 100 100 97 97 96 91 96 93 94 95 95 97 94 96 96 96 96 95 98 98 94 97 85 93 97 95 98 98 97 97 98 98 98 99 96 97 97 97 99 96 96 96 92 92 89 90 96 99 98 98 97 98
100 100 100 97 85 91 98 85 74 95 97 97 97 96 96 97 94 94 94 95 96 94 89 88 92 100 99 98 98 97 98 99 99 98 98 97 99 100 98 97 98 98 97 93 96 94 96 95 97 96 96 94 98 98
98 99 97 84 57 76 96 87 68 83 97 97 92 97 98 96 96 96 91 92 87 94 94 95 98 97 98 97 98 98 98 98 99 100 97 98 96 98 93 90 94 97 97 99 98 97 97 99 97 97 96 96 96 99
77 76 69 54 62 63 86 92 95 92 89 90 93 89 97 94 97 96 94 78 91 98 97 98 97 97 96 97 96 98 96 97 98 99 99 99 96 95 98 99 97 97 96 95 96 98 96 96 97 97 95 96 96 96
99 89 71 58 82 82 92 88 90 94 93 95 98 89 97 98 99 96 88 92 97 98 98 98 97 97 98 98 97 97 98 96 90 91 92 92 97 96 97 98 94 96 96 96 95 96 96 96 96 96 96 97 96 97
79 66 65 72 88 84 93 98 94 94 95 99 93 93 99 98 97 78 98 98 98 96 96 96 96 95 96 94 91 91 95 94 99 99 98 98 98 98 98 98 94 93 96 97 96 96 96 96 96 96 96 96 96 97
53 77 90 92 85 97 96 97 90 93 96 94 93 98 97 98 83 90 100 100 98 94 94 95 96 96 83 85 94 97 100 94 92 96 98 92 96 100 97 98 96 96 94 96 96 96 96 96 96 96 96 96 96 97
78 85 84 87 86 90 95 97 94 89 97 96 94 97 97 92 95 95 96 96 95 95 96 92 91 94 97 98 94 97 99 96 97 98 99 98 94 92 95 96 96 95 94 94 96 96 96 96 96 95 96 95 96 96
94 93 90 98 95 91 94 97 96 96 92 95 95 95 87 88 91 100 92 98 99 98 100 100 100 99 97 99 98 97 99 96 88 95 99 98 97 95 96 96 95 96 97 94 94 95 95 95 94 94 95 94 92 92
96 97 86 63 77 77 91 88 81 90 98 100 96 95 89 99 100 98 96 97 99 98 99 97 93 96 100 97 96 98 97 95 94 99 98 97 96 96 95 96 96 97 96 96 95 92 92 96 94 93 94 93 89 86
90 83 92 94 89 84 94 96 98 100 99 92 84 99 100 100 100 98 100 98 99 89 92 95 95 95 96 97 98 97 98 98 97 94 93 94 95 96 96 96 96 96 94 95 96 96 94 90 91 91 91 91 92 88
94 92 83 97 94 96 100 100 100 97 93 96 99 100 100 98 99 98 97 96 97 91 96 100 100 97 94 95 96 96 96 96 87 93 96 98 94 95 97 94 96 96 96 95 96 95 95 94 93 90 86 86 88 89
92 93 93 99 96 100 100 99 100 100 96 94 91 82 93 97 98 85 78 76 85 96 99 99 97 87 95 92 97 98 98 97 95 92 97 100 99 99 98 94 92 95 96 96 95 96 97 94 95 95 95 97 95 87
90 92 95 96 100 100 96 92 74 75 96 97 99 100 100 100 98 99 91 86 85 86 83 85 82 80 81 83 90 93 94 98 99 99 98 98 98 96 95 95 96 96 93 80 79 86 94 94 92 92 93 95 98 98
95 100 99 98 100 97 99 100 100 98 100 100 100 100 100 99 100 99 99 88 77 87 96 92 91 95 88 80 63 62 66 72 76 87 97 98 96 96 96 97 95 92 93 94 92 92 87 92 97 98 93 94 95 92
94 97 100 100 100 100 99 95 100 100 100 100 100 100 100 98 100 95 100 95 86 84 93 94 92 95 100 98 96 96 94 77 72 77 77 78 82 90 96 96 98 96 86 84 94 96 97 98 96 94 92 94 96 100

GFSWCAN_925_rhum_114.txt.gz
RH
84 64 77 99 80 70 97 95 83 74 86 91 88 76 77 78 80 97 98 97 92 99 91 74 71 79 83 85 96 78 84 84 93 94 95 93 95 92 95 68 97 97 97 97 96 95 85 80 81 85 94 88 85 86
84 79 87 96 77 58 81 84 71 72 84 90 79 74 76 84 89 97 99 89 93 98 90 86 79 76 74 73 84 86 82 91 96 96 96 97 95 91 93 91 100 97 98 96 91 75 86 90 88 88 81 91 84 65
78 81 84 95 84 65 69 68 80 79 80 79 81 75 76 86 84 99 100 97 100 100 94 92 81 49 59 69 70 89 87 79 91 88 99 97 99 90 95 91 94 96 100 99 100 91 94 90 84 78 90 94 81 96
79 78 81 81 69 69 74 79 77 81 82 81 94 87 86 82 96 94 100 92 95 97 99 83 61 63 47 59 70 78 68 74 83 85 91 97 95 80 90 77 90 98 100 95 99 100 93 80 81 80 86 82 87 84
77 73 82 83 73 65 72 68 78 79 76 81 77 68 79 69 86 94 98 92 76 91 98 93 75 52 58 60 67 75 83 82 88 91 97 92 96 94 91 95 98 84 99 99 98 99 100 98 92 82 87 88 83 84
80 80 90 95 77 70 65 75 76 72 80 68 72 90 93 94 83 99 100 94 90 86 100 96 71 80 54 56 70 85 81 90 91 96 93 93 87 91 98 96 85 81 80 94 100 83 89 96 82 80 88 88 86 89
73 78 93 86 79 68 66 82 75 76 75 75 74 83 92 87 95 98 98 86 98 94 100 92 93 75 68 76 87 92 82 90 91 98 99 93 92 95 92 92 90 83 76 99 84 81 87 78 90 81 83 89 88 84
79 74 77 79 75 68 70 81 75 66 66 67 82 78 86 91 99 100 85 100 100 98 98 94 92 91 67 84 89 91 96 97 99 97 99 99 95 99 98 93 84 80 78 76 78 76 81 76 78 77 71 76 84 89
74 71 74 73 69 72 73 70 74 77 69 74 79 96 100 100 100 98 86 100 92 89 95 89 93 91 77 86 89 98 98 99 98 98 98 99 99 98 95 92 88 89 88 86 78 77 77 83 85 81 84 87 89 89
93 83 78 72 73 72 73 79 78 74 71 86 100 100 99 98 94 96 100 100 100 100 100 97 87 96 88 99 100 100 99 99 100 98 98 100 96 92 91 91 90 80 75 76 86 87 86 86 88 90 88 86 84 85
92 92 77 75 84 86 77 72 71 84 95 100 100 99 89 100 95 100 97 98 98 98 97 91 88 86 80 94 96 99 99 98 97 90 99 97 96 92 88 90 84 81 80 74 74 74 75 83 88 90 88 87 90 93
90 92 88 85 87 90 84 72 75 99 99 93 98 99 100 100 100 98 90 92 88 88 92 85 89 83 87 90 94 99 98 95 94 95 99 96 93 89 82 88 78 81 77 73 75 80 80 78 87 88 88 87 92 96
91 88 88 88 83 84 81 84 99 100 99 100 98 100 100 99 96 96 95 96 92 95 97 98 97 96 97 96 97 95 97 94 87 99 92 91 92 86 89 84 80 80 79 75 76 80 83 84 89 93 90 96 97 96
84 82 81 86 92 93 94 99 100 100 100 100 98 98 92 99 93 91 88 89 90 95 98 98 96 99 100 97 98 97 92 93 99 98 95 96 94 93 92 88 84 84 82 93 88 86 90 94 96 98 99 98 95 97
100 99 100 100 99 98 99 100 100 100 100 99 95 98 98 92 98 98 98 97 99 96 97 98 97 95 98 97 93 92 85 92 96 95 97 92 87 94 94 88 95 92 94 95 97 100 100 98 97 98 100 98 97 96
99 100 100 98 98 99 100 100 99 99 98 85 91 94 98 95 99 97 98 100 98 99 98 97 98 98 97 95 94 86 92 96 95 97 98 98 98 100 99 97 98 96 95 96 99 99 97 97 98 99 97 98 98 96
99 99 98 100 100 100 99 96 99 98 95 88 98 96 96 96 98 98 97 96 94 99 98 95 91 86 95 97 97 96 98 97 96 98 99 99 96 99 100 99 100 96 94 95 95 95 95 94 89 89 98 100 98 97
98 95 99 100 98 98 98 98 98 95 94 95 95 97 93 96 96 96 95 95 97 98 95 96 88 90 96 95 98 97 97 97 97 98 99 98 97 98 98 96 96 98 96 95 94 92 92 90 96 100 99 98 96 97
100 100 99 98 89 89 97 90 75 96 98 98 97 96 96 96 94 94 94 95 96 94 87 89 91 98 100 98 99 98 98 98 99 98 99 98 99 100 100 98 99 100 99 94 97 94 95 94 96 96 96 93 97 97
100 100 95 66 56 85 88 88 68 85 97 97 91 96 96 96 96 98 91 94 91 94 94 95 97 98 98 98 97 97 97 97 98 99 97 97 97 99 98 96 94 96 98 99 98 98 98 98 98 97 96 96 95 98
97 93 54 48 58 66 91 96 94 92 86 92 93 90 99 91 95 95 93 79 91 97 97 98 97 97 96 97 97 97 96 96 98 98 98 100 96 96 96 99 97 97 96 96 96 98 96 97 97 97 96 96 96 97
99 77 67 53 79 82 90 88 90 91 92 96 93 86 97 97 98 96 88 92 98 98 98 98 97 97 97 96 96 97 98 95 92 94 93 93 98 96 96 99 95 97 96 96 95 96 97 97 96 96 96 97 96 96
82 84 90 86 86 82 95 95 95 93 96 100 90 94 100 100 97 78 100 98 98 96 96 96 96 95 95 96 94 94 96 93 98 98 98 98 97 97 97 98 97 94 96 99 97 95 95 96 96 96 96 96 96 98
89 93 96 96 86 98 96 98 93 95 95 95 94 100 99 97 89 93 100 100 98 95 95 96 95 96 86 90 93 96 98 94 94 96 98 94 95 99 96 96 96 96 96 98 95 95 96 96 96 96 96 96 96 96
85 88 88 91 88 89 98 97 94 90 98 99 96 98 98 90 95 98 100 99 97 96 96 95 93 93 93 96 95 95 96 96 94 96 100 98 93 90 97 97 98 97 94 90 95 94 96 96 96 96 96 95 95 96
94 93 90 97 95 91 94 99 97 98 94 96 97 93 89 90 92 98 90 96 96 96 98 100 97 97 97 98 95 95 97 96 89 96 98 97 98 97 97 98 95 96 100 95 92 94 96 96 95 95 96 96 96 94
96 98 84 64 76 76 91 88 80 89 94 95 95 91 88 98 100 98 96 96 98 99 99 96 89 94 99 97 98 99 98 94 93 98 98 97 97 98 97 98 99 99 98 98 96 94 94 94 92 93 94 93 89 87
90 81 90 95 90 84 95 96 98 100 100 90 83 99 100 94 100 98 99 99 96 94 94 96 96 95 95 97 99 98 98 99 96 94 94 93 93 93 96 98 98 97 95 95 96 96 96 95 93 91 90 89 90 90
96 90 84 98 93 96 99 100 100 94 92 90 98 100 100 96 98 97 97 97 95 86 92 96 100 97 96 97 97 96 96 94 84 96 98 100 93 95 97 96 96 96 96 95 96 96 96 96 96 96 93 90 90 90
94 94 95 98 98 100 100 99 100 99 97 96 93 88 94 98 98 94 92 92 92 96 99 98 96 90 94 91 98 99 99 96 93 90 98 100 100 100 100 97 94 93 94 96 96 96 96 95 96 96 96 96 96 90
92 94 95 97 100 99 96 99 80 83 96 99 99 100 100 100 98 99 88 87 91 93 89 81 76 76 78 85 92 94 97 99 98 99 100 100 100 98 95 93 94 98 98 81 78 87 94 95 93 91 93 96 98 97
98 100 95 100 100 98 100 100 100 100 100 100 100 100 100 99 100 98 100 96 87 85 89 86 82 86 77 66 64 67 71 74 76 84 95 97 97 96 94 95 96 94 89 95 99 96 90 96 95 95 90 93 95 94
96 98 100 100 100 100 100 98 100 100 100 100 100 100 100 97 98 94 100 98 82 81 88 93 96 96 97 98 97 93 83 75 81 85 82 75 74 84 96 97 98 96 87 85 95 100 100 99 96 94 92 96 98 100